Weather History for Port Angeles, WA

Change the Weather History Date:

Monday, January 27, 2014

  Actual Average Record
Temperature  
Mean Temperature 37 °F -  
Max Temperature 39 °F 45 °F 53 °F (1962)
Min Temperature 35 °F 32 °F 10 °F (1972)
Degree Days  
Heating Degree Days 28    
Moisture  
Dew Point 37 °F    
Average Humidity 98    
Maximum Humidity 100    
Minimum Humidity 89    
Precipitation  
Precipitation 0.05 in - - ()
Sea Level Pressure  
Sea Level Pressure 30.17 in    
Wind  
Wind Speed 5 mph (SE)    
Max Wind Speed 7 mph    
Max Gust Speed -    
Visibility 3 miles    
Events Fog , Rain    
Averages and records for this station are not official NWS values.
T = Trace of Precipitation, MM = Missing Value Source: NWS Daily Summary

Daily Weather History Graph

Daily Weather History Graph

Search for Another Location

Airport:

Trip Planner

Search our weather history database for the weather conditions in past years. The results will help you decide how hot, cold, wet, or windy it might be!

Date:

Astronomy

Jan. 27, 2014 Rise Set
Actual Time 7:48 AM PST 5:06 PM PST
Civil Twilight 7:14 AM PST 5:40 PM PST
Nautical Twilight 6:36 AM PST 6:17 PM PST
Astronomical Twilight 5:59 AM PST 6:54 PM PST
Moon 4:38 AM PST (1/27) 1:54 PM PST (1/27)
Length of Visible Light 10h 25m
Length of Day
9h 18m
Waning Crescent, 14% of the Moon is Illuminated
Jan 27
Waning Crescent
Jan 30
New
Feb 6
First Quarter
Feb 14
Full
Feb 22
Last Quarter

Hourly Weather History & Observations

Time (PST) Temp. Windchill Dew Point Humidity Pressure Visibility Wind Dir Wind Speed Gust Speed Precip Events Conditions
12:53 AM 35.1 °F - 34.0 °F 96% 30.13 in 0.2 mi North - - N/A Fog Fog
1:53 AM 35.1 °F - 34.0 °F 96% 30.13 in 0.2 mi North - - N/A Fog Fog
2:53 AM 36.0 °F - 35.1 °F 97% 30.15 in 0.2 mi North - - N/A Fog Fog
3:27 AM 36.0 °F - 36.0 °F 100% 30.13 in 0.2 mi North - - N/A Fog Fog
3:53 AM 36.0 °F - 36.0 °F 100% 30.15 in 0.2 mi North - - N/A Fog Fog
4:53 AM 36.0 °F - 36.0 °F 100% 30.15 in 0.2 mi North - - N/A Fog Fog
5:53 AM 36.0 °F - 36.0 °F 100% 30.16 in 0.2 mi North - - N/A Fog Fog
6:53 AM 36.0 °F - 36.0 °F 100% 30.16 in 0.5 mi North - - N/A Fog Fog
7:01 AM 36.0 °F - 36.0 °F 100% 30.14 in 2.5 mi North - - N/A   Overcast
7:08 AM 36.0 °F - 36.0 °F 100% 30.14 in 3.0 mi North - - N/A   Overcast
7:10 AM 36.0 °F - 36.0 °F 100% 30.15 in 1.8 mi North - - N/A   Overcast
7:23 AM 36.0 °F - 36.0 °F 100% 30.15 in 0.8 mi North - - N/A   Overcast
7:48 AM 35.6 °F - 35.6 °F 100% 30.15 in 0.2 mi North - - N/A Fog Fog
7:53 AM 36.0 °F - 36.0 °F 100% 30.17 in 0.2 mi North - - N/A Fog Fog
8:04 AM 36.0 °F - 36.0 °F 100% 30.16 in 0.5 mi North - - N/A Fog Fog
8:15 AM 37.0 °F - 37.0 °F 100% 30.16 in 0.2 mi North - - N/A Fog Fog
8:53 AM 37.9 °F - 37.9 °F 100% 30.18 in 0.2 mi North - - N/A Fog Fog
9:04 AM 37.0 °F - 37.0 °F 100% 30.17 in 0.8 mi North - - N/A   Mist
9:09 AM 37.0 °F - 37.0 °F 100% 30.18 in 2.0 mi North - - N/A   Overcast
9:17 AM 37.0 °F - 37.0 °F 100% 30.17 in 8.0 mi North - - N/A   Overcast
9:34 AM 37.0 °F - 37.0 °F 100% 30.18 in 1.5 mi North - - N/A   Overcast
9:43 AM 37.9 °F - 37.0 °F 97% 30.18 in 0.5 mi North - - N/A Fog Fog
9:53 AM 37.9 °F - 37.9 °F 100% 30.19 in 0.2 mi North - - N/A Fog Fog
10:14 AM 37.9 °F 32.7 °F 37.9 °F 100% 30.18 in 0.8 mi SSE 6.9 mph - N/A   Overcast
10:21 AM 37.9 °F 33.5 °F 37.9 °F 100% 30.19 in 1.5 mi South 5.8 mph - N/A   Overcast
10:27 AM 37.9 °F 34.4 °F 37.9 °F 100% 30.19 in 3.0 mi South 4.6 mph - N/A   Overcast
10:33 AM 37.9 °F 34.4 °F 37.9 °F 100% 30.19 in 1.5 mi SSE 4.6 mph - N/A   Overcast
10:44 AM 39.0 °F 34.0 °F 37.9 °F 96% 30.20 in 0.8 mi SSE 6.9 mph - N/A   Overcast
10:51 AM 39.2 °F 35.0 °F 39.2 °F 100% 30.21 in 1.5 mi South 5.8 mph - N/A   Overcast
10:53 AM 39.0 °F 34.8 °F 39.0 °F 100% 30.22 in 2.0 mi SSE 5.8 mph - N/A   Overcast
11:37 AM - - - N/A% 30.20 in 1.0 mi ESE 5.8 mph - N/A   Overcast
11:53 AM - - - N/A% 30.19 in 1.0 mi ESE 6.9 mph - N/A   Overcast
12:00 PM - - - N/A% 30.19 in 0.8 mi SE 6.9 mph - N/A   Overcast
12:10 PM - - - N/A% 30.19 in 1.5 mi SE 6.9 mph - N/A   Overcast
12:15 PM - - - N/A% 30.19 in 3.0 mi SE 6.9 mph - N/A   Overcast
12:32 PM - - - N/A% 30.19 in 1.8 mi ESE 6.9 mph - N/A   Overcast
12:53 PM - - - N/A% 30.18 in 1.8 mi ESE 6.9 mph - N/A   Overcast
1:01 PM - - - N/A% 30.19 in 2.5 mi ESE 4.6 mph - N/A   Overcast
1:48 PM - - - N/A% 30.18 in 4.0 mi SE 5.8 mph - N/A   Haze
1:53 PM - - - N/A% 30.17 in 5.0 mi SE 5.8 mph - N/A   Haze
2:53 PM 39.0 °F 35.7 °F 37.9 °F 96% 30.18 in 6.0 mi East 4.6 mph - N/A   Overcast
3:37 PM 39.9 °F 36.7 °F 37.9 °F 93% 30.17 in 7.0 mi SE 4.6 mph - N/A   Overcast
3:53 PM 39.9 °F 37.8 °F 37.0 °F 89% 30.18 in 10.0 mi ESE 3.5 mph - N/A   Overcast
4:53 PM 39.9 °F - 37.0 °F 89% 30.18 in 10.0 mi Calm Calm - N/A   Overcast
5:53 PM 39.0 °F - 37.0 °F 93% 30.18 in 8.0 mi Calm Calm - N/A   Overcast
6:53 PM 37.9 °F 35.5 °F 37.0 °F 97% 30.18 in 5.0 mi SSW 3.5 mph - N/A   Mostly Cloudy
7:05 PM 37.9 °F - 37.0 °F 97% 30.17 in 5.0 mi Calm Calm - N/A   Scattered Clouds
7:53 PM 39.0 °F - 36.0 °F 89% 30.19 in 8.0 mi Calm Calm - N/A   Overcast
8:53 PM 39.0 °F 36.8 °F 37.0 °F 93% 30.19 in 10.0 mi WSW 3.5 mph - N/A   Overcast
9:53 PM 39.0 °F - 37.0 °F 93% 30.19 in 4.0 mi Calm Calm - 0.03 in Rain Light Rain
10:53 PM 39.0 °F 36.8 °F 37.9 °F 96% 30.19 in 5.0 mi SE 3.5 mph - 0.01 in Rain Light Rain
11:53 PM 39.0 °F - 39.0 °F 100% 30.19 in 6.0 mi Calm Calm - 0.01 in   Overcast